This is the latest recevied weather packets stored in our database for station/object W8LMG. If no packets are shown the sender has not sent any weather packets the latest 10 day(s).
| Time | Temp. | Humidity | Pressure | Rain* | Wind** | Luminosity | Snow |
|---|---|---|---|---|---|---|---|
| 1788534830 | 28.89° C | 72% | 1019.4 hPa | 0 mm | - | 59 W/m² | - |
| 1788534526 | 28.89° C | 72% | 1019.6 hPa | 0 mm | - | 117 W/m² | - |
| 1788534221 | 28.89° C | 75% | 1019.5 hPa | 0 mm | - | 49 W/m² | - |
| 1788533918 | 27.78° C | 76% | 1019.6 hPa | 0 mm | - | 387 W/m² | - |
| 1788533615 | 27.22° C | 81% | 1019.6 hPa | 0 mm | - | 38 W/m² | - |
| 1788533310 | 26.67° C | 89% | 1019.4 hPa | 0 mm | - | 36 W/m² | - |
| 1788533006 | 26.67° C | 89% | 1019.7 hPa | 0 mm | - | 78 W/m² | - |
| 1788532701 | 26.11° C | 89% | 1019.6 hPa | 0 mm | - | 40 W/m² | - |
| 1788532398 | 26.11° C | 91% | 1019.6 hPa | 0 mm | - | 46 W/m² | - |
| 1788532094 | 25.56° C | 92% | 1019.7 hPa | 0 mm | - | 28 W/m² | - |
| 1788531790 | 25.56° C | 91% | 1019.7 hPa | 0 mm | - | 33 W/m² | - |
| 1788531484 | 24.44° C | 93% | 1019.5 hPa | 0 mm | - | 32 W/m² | - |
| 1788531179 | 24.44° C | 95% | 1019.8 hPa | 0 mm | - | 34 W/m² | - |
| 1788530875 | 23.89° C | 94% | 1019.7 hPa | 0 mm | - | 38 W/m² | - |
| 1788530570 | 23.33° C | 96% | 1019.7 hPa | 0 mm | - | 46 W/m² | - |
| 1788530269 | 22.78° C | 97% | 1019.7 hPa | 0 mm | - | 110 W/m² | - |
| 1788529964 | 22.22° C | 97% | 1019.6 hPa | 0 mm | - | 29 W/m² | - |
| 1788529660 | 21.67° C | 99% | 1019.9 hPa | 0 mm | - | 27 W/m² | - |
| 1788529360 | 21.67° C | 99% | 1020 hPa | 0 mm | - | 27 W/m² | - |
| 1788529055 | 21.11° C | 99% | 1019.9 hPa | 0 mm | - | 25 W/m² | - |
| 1788528751 | 21.11° C | 99% | 1019.9 hPa | 0 mm | - | 26 W/m² | - |
| 1788528450 | 20.56° C | 99% | 1019.9 hPa | 0 mm | - | 27 W/m² | - |
| 1788528146 | 20.56° C | 99% | 1020 hPa | 0 mm | - | 33 W/m² | - |
| 1788527844 | 20.56° C | 99% | 1019.8 hPa | 0 mm | - | 38 W/m² | - |
| 1788527541 | 20.56° C | 99% | 1020.1 hPa | 0 mm | - | 45 W/m² | - |
* Rain latest hour (hover to see other rain measurements)
** Current wind speed in m/s (hover to see current wind gust speed)